Weather History for EHRD - August, 2012

Change the Weather History Date:

Friday, August 3, 2012

  Actual Average Record
Temperature  
Mean Temperature 64 °F -  
Max Temperature 72 °F 69 °F 80 °F (1999)
Min Temperature 57 °F 55 °F 50 °F (1998)
Growing Degree Days 14 (Base 50)    
Moisture  
Dew Point 57 °F    
Average Humidity 78    
Maximum Humidity 100    
Minimum Humidity 47    
Precipitation  
Precipitation 0.02 in - - ()
Sea Level Pressure  
Sea Level Pressure 29.96 in    
Wind  
Wind Speed 7 mph ()    
Max Wind Speed 15 mph    
Max Gust Speed -    
Visibility 7.1 miles    
Events Rain    
Averages and records for this station are not official NWS values.
T = Trace of Precipitation, MM = Missing Value Source: Averaged Metar Reports

Daily Weather History Graph

Daily Weather History Graph

Search for Another Location

Airport or City:

Trip Planner

Search our weather history database for the weather conditions in past years. The results will help you decide how hot, cold, wet, or windy it might be!

Date:

Astronomy

Aug. 03, 2012 Rise Set
Actual Time 6:07 AM CEST 9:27 PM CEST
Civil Twilight 5:27 AM CEST 10:08 PM CEST
Nautical Twilight 4:32 AM CEST 11:02 PM CEST
Astronomical Twilight 3:16 AM CEST 12:16 AM CEST
Moon 9:34 PM CEST (8/3) 7:52 AM CEST (8/3)
Length of Visible Light 16h 41m
Length of Day
15h 20m
Full, 98% of the Moon is Illuminated
Aug 3
Full
Aug 9
Last Quarter
Aug 17
New
Aug 24
First Quarter
Aug 31
Full

Hourly Weather History & Observations

Time (CEST) Temp. Dew Point Humidity Pressure Visibility Wind Dir Wind Speed Gust Speed Precip Events Conditions
12:25 AM 59.0 °F 57.2 °F 94% 29.95 in 6.2 mi South 4.6 mph - N/A   Unknown
12:55 AM 59.0 °F 55.4 °F 88% 29.95 in 6.2 mi South 4.6 mph - N/A   Unknown
1:25 AM 59.0 °F 57.2 °F 94% 29.95 in 6.2 mi South 5.8 mph - N/A   Unknown
1:55 AM 60.8 °F 57.2 °F 88% 29.95 in 6.2 mi SSE 4.6 mph - N/A   Unknown
2:00 AM 62 °F 58 °F 84% 29.96 in 15 mi SSE 4.5 mph - -   Overcast
2:25 AM 60.8 °F 59.0 °F 94% 29.95 in 6.2 mi SSE 5.8 mph - N/A   Unknown
2:55 AM 62.6 °F 59.0 °F 88% 29.95 in 6.2 mi SSE 6.9 mph - N/A   Unknown
3:25 AM 62.6 °F 59.0 °F 88% 29.92 in 6.2 mi SSE 5.8 mph - N/A   Unknown
3:55 AM 62.6 °F 59.0 °F 88% 29.92 in 6.2 mi SSE 5.8 mph - N/A   Unknown
4:25 AM 60.8 °F 59.0 °F 94% 29.95 in 4.3 mi SW 12.7 mph - N/A Rain Rain Showers
4:55 AM 60.8 °F 59.0 °F 94% 29.95 in 6.2 mi South 4.6 mph - N/A   Drizzle
5:00 AM 61 °F 59 °F 92% 29.95 in 9 mi South 4.5 mph - - Rain Light Drizzle
5:25 AM 60.8 °F 59.0 °F 94% 29.92 in 6.2 mi SSE 3.5 mph - N/A   Scattered Clouds
5:55 AM 60.8 °F 59.0 °F 94% 29.92 in 6.2 mi Variable 2.3 mph - N/A   Mostly Cloudy
6:25 AM 60.8 °F 59.0 °F 94% 29.92 in 6.2 mi SSE 2.3 mph - N/A   Unknown
6:55 AM 59.0 °F 59.0 °F 100% 29.95 in 6.2 mi Variable 2.3 mph - N/A   Mostly Cloudy
7:25 AM 60.8 °F 59.0 °F 94% 29.95 in 6.2 mi SSW 6.9 mph - N/A   Partly Cloudy
7:55 AM 62.6 °F 60.8 °F 94% 29.95 in 6.2 mi SSW 5.8 mph - N/A   Overcast
8:00 AM 63 °F 61 °F 89% 29.96 in 11 mi SW 8.9 mph - -   Partly Cloudy
8:25 AM 62.6 °F 60.8 °F 94% 29.95 in 6.2 mi SW 10.4 mph - N/A   Overcast
8:55 AM 64.4 °F 60.8 °F 88% 29.95 in 6.2 mi SW 10.4 mph - N/A   Mostly Cloudy
9:25 AM 62.6 °F 59.0 °F 88% 29.95 in 6.2 mi WSW 12.7 mph - N/A   Mostly Cloudy
9:55 AM 64.4 °F 57.2 °F 77% 29.95 in 6.2 mi WSW 13.8 mph - N/A   Unknown
10:25 AM 64.4 °F 57.2 °F 77% 29.98 in 6.2 mi WSW 13.8 mph - N/A   Scattered Clouds
10:55 AM 66.2 °F 57.2 °F 73% 29.98 in 6.2 mi SW 12.7 mph - N/A   Mostly Cloudy
11:00 AM 66 °F 55 °F 60% 29.98 in 16 mi WSW 13.4 mph - -   Partly Cloudy
11:25 AM 66.2 °F 57.2 °F 73% 29.98 in 6.2 mi WSW 12.7 mph - N/A   Partly Cloudy
11:55 AM 68.0 °F 53.6 °F 60% 29.98 in 6.2 mi WSW 13.8 mph - N/A   Partly Cloudy
12:25 PM 66.2 °F 53.6 °F 64% 29.98 in 6.2 mi WSW 13.8 mph - N/A   Mostly Cloudy
12:55 PM 68.0 °F 53.6 °F 60% 29.98 in 6.2 mi WSW 12.7 mph - N/A   Mostly Cloudy
1:25 PM 68.0 °F 55.4 °F 64% 29.98 in 6.2 mi WSW 12.7 mph - N/A   Partly Cloudy
1:55 PM 68.0 °F 51.8 °F 56% 29.98 in 6.2 mi West 15.0 mph - N/A   Partly Cloudy
2:00 PM 69 °F 53 °F 47% 29.99 in 19 mi WSW 13.4 mph - -  
2:25 PM 69.8 °F 53.6 °F 56% 29.98 in 6.2 mi WSW 10.4 mph - N/A   Unknown
2:55 PM 69.8 °F 51.8 °F 53% 29.98 in 6.2 mi WSW 10.4 mph - N/A   Unknown
3:25 PM 69.8 °F 51.8 °F 53% 29.98 in 6.2 mi West 6.9 mph - N/A   Partly Cloudy
3:55 PM 69.8 °F 51.8 °F 53% 29.98 in 6.2 mi WSW 5.8 mph - N/A   Mostly Cloudy
4:25 PM 69.8 °F 55.4 °F 60% 29.95 in 6.2 mi SW 5.8 mph - N/A   Unknown
4:55 PM 71.6 °F 55.4 °F 57% 29.95 in 6.2 mi WSW 8.1 mph - N/A   Partly Cloudy
5:00 PM 72 °F 58 °F 51% 29.96 in 16 mi WSW 6.7 mph - -   Partly Cloudy
5:25 PM 71.6 °F 55.4 °F 57% 29.95 in 6.2 mi Variable 6.9 mph - N/A   Mostly Cloudy
5:55 PM 71.6 °F 53.6 °F 53% 29.95 in 6.2 mi South 6.9 mph - N/A   Mostly Cloudy
6:25 PM 69.8 °F 55.4 °F 60% 29.95 in 6.2 mi South 9.2 mph - N/A   Scattered Clouds
6:55 PM 69.8 °F 55.4 °F 60% 29.95 in 6.2 mi SSW 9.2 mph - N/A   Partly Cloudy
7:25 PM 69.8 °F 55.4 °F 60% 29.95 in 6.2 mi South 10.4 mph - N/A   Partly Cloudy
7:55 PM 62.6 °F 60.8 °F 94% 29.95 in 6.2 mi SW 11.5 mph - N/A   Mostly Cloudy
8:00 PM 62 °F 59 °F 88% 29.96 in 22 mi WSW 8.9 mph - - Rain Light Rain Showers
8:25 PM 60.8 °F 59.0 °F 94% 29.95 in 6.2 mi West 3.5 mph - N/A   Scattered Clouds
8:55 PM 60.8 °F 59.0 °F 94% 29.95 in 6.2 mi Calm Calm - N/A   Unknown
9:25 PM 62.6 °F 59.0 °F 88% 29.95 in 6.2 mi SSE 3.5 mph - N/A   Unknown
9:55 PM 62.6 °F 59.0 °F 88% 29.95 in 6.2 mi South 5.8 mph - N/A   Unknown
10:25 PM 62.6 °F 59.0 °F 88% 29.95 in 6.2 mi South 4.6 mph - N/A   Unknown
10:55 PM 64.4 °F 59.0 °F 83% 29.95 in 6.2 mi SE 5.8 mph - N/A   Unknown
11:00 PM 64 °F 60 °F 82% 29.95 in 22 mi SSE 4.5 mph - - Rain Light Rain
11:25 PM 64.4 °F 60.8 °F 88% 29.95 in 6.2 mi South 6.9 mph - N/A Rain Light Rain
11:55 PM 62.6 °F 59.0 °F 88% 29.95 in 6.2 mi SSW 9.2 mph - N/A   Partly Cloudy